Location: Newark
(40.3500°N, 15.2333°E)
Time: 09:50:30
(UTC+00:00)

Transit 4A - Visible Passes

Search period start: 18 January 2020 00:00
Search period end: 28 January 2020 00:00
Orbit: 871 x 973 km, 66.8° (Epoch: 17 January)

Date Brightness Start Highest point End Pass type
(mag) Time Alt. Az. Time Alt. Az. Time Alt. Az.
18 Jan 10.8 17:36:59 10° WNW 17:40:38 17° WSW 17:44:18 10° SW visible
19 Jan 11.1 05:12:08 10° SE 05:15:31 15° ESE 05:18:52 10° ENE visible
19 Jan 11.3 17:48:52 10° W 17:49:39 10° W 17:50:24 10° WSW visible
20 Jan 10.5 05:19:52 10° SSE 05:24:35 24° ESE 05:29:14 10° NE visible
21 Jan 9.7 05:28:14 10° S 05:33:43 36° ESE 05:39:06 10° NE visible
22 Jan 8.8 05:37:01 10° S 05:42:55 55° ESE 05:48:42 10° NE visible
22 Jan 10.7 16:27:23 10° WNW 16:31:49 23° WSW 16:36:18 10° SSW visible
23 Jan 11.1 04:05:09 10° ESE 04:06:45 11° ESE 04:08:21 10° E visible
23 Jan 8.0 05:46:06 10° SSW 05:52:11 82° ESE 05:58:07 10° NNE visible
23 Jan 11.0 16:37:51 10° WNW 16:40:53 15° WSW 16:43:55 10° SW visible
24 Jan 10.6 04:11:50 10° SE 04:15:46 18° ESE 04:19:40 10° ENE visible
25 Jan 9.9 04:19:50 10° SSE 04:24:51 28° ESE 04:29:48 10° NE visible
26 Jan 9.1 04:28:22 10° S 04:34:00 42° ESE 04:39:34 10° NE visible
27 Jan 8.3 04:37:16 10° SSW 04:43:15 64° ESE 04:49:05 10° NE visible
